Location: Bartshausen
(51.8454°N, 9.8167°E)
Time: 03:16:19
(UTC+00:00)

Cosmos 1190 Rocket - Pass Details

Date: 08 November 2025
Orbit: 753 x 775 km, 74.1° (Epoch: 15 December)

Event Time Altitude Azimuth Distance (km) Brightness Sun altitude
Exits shadow 04:31:32 - 337° (NNW) 2,753 6.6 -18.1°
Reaches altitude 10° 04:32:38 10° 339° (NNW) 2,332 6.3 -17.9°
Maximum altitude 04:37:54 64° 61° (ENE) 858 4.4 -17.1°
Drops below altitude 10° 04:43:06 10° 143° (SE) 2,304 7.1 -16.3°
Sets 04:45:29 0° 147° (SSE) 3,222 7.8 -15.9°
